FW6934 Weather Reports


time (UTC)temp
F
wind
direction
speed
knots
gust
knots
rain 1hr
in
rain 24hr
in
rain mn
in
humidity
%
barometer
mb
20260507085544 53 343 0.0 3.5 0.00 0.00 0.00 77 1009.7
20260507085033 53 344 1.7 3.5 0.00 0.00 0.00 77 1009.7
20260507084559 53 305 0.0 2.6 0.00 0.00 0.00 77 1009.7
20260507084044 53 305 0.0 2.6 0.00 0.00 0.00 77 1009.6
20260507083533 53 334 0.0 1.7 0.00 0.00 0.00 78 1009.5
20260507083004 53 294 0.0 3.5 0.00 0.00 0.00 78 1009.5
20260507082553 53 285 0.9 3.5 0.00 0.00 0.00 78 1009.7
20260507082045 53 342 0.9 3.5 0.00 0.00 0.00 78 1009.6
20260507081501 53 355 0.9 3.5 0.00 0.00 0.00 78 1009.6
20260507081052 53 317 0.9 3.5 0.00 0.00 0.00 78 1009.5
20260507080541 53 12 0.9 4.3 0.00 0.00 0.00 78 1009.5
20260507075548 53 320 0.0 2.6 0.00 0.00 0.00 78 1009.6
20260507075037 53 355 1.7 2.6 0.00 0.00 0.00 78 1009.6
20260507074625 53 266 0.0 2.6 0.00 0.00 0.00 78 1009.6
20260507074048 53 237 0.0 2.6 0.00 0.00 0.00 78 1009.5
20260507073537 53 355 0.0 3.5 0.00 0.00 0.00 78 1009.5
20260507073008 53 355 1.7 3.5 0.00 0.00 0.00 78 1009.5
20260507072558 53 345 0.0 4.3 0.00 0.00 0.00 78 1009.6
20260507072051 54 5 1.7 7.0 0.00 0.00 0.00 78 1009.5
20260507071509 54 11 0.9 4.3 0.00 0.00 0.00 78 1009.5
20260507071057 54 5 1.7 4.3 0.00 0.00 0.00 78 1009.5
20260507070546 54 336 0.0 3.5 0.00 0.00 0.00 78 1009.4
20260507070008 54 262 0.0 2.6 0.00 0.00 0.00 78 1009.3
20260507065554 54 267 0.0 2.6 0.00 0.00 0.00 78 1009.3
20260507065043 54 267 0.9 2.6 0.00 0.00 0.00 78 1009.3
20260507064507 54 319 0.0 3.5 0.00 0.00 0.00 78 1009.4
20260507064055 54 360 0.0 3.5 0.00 0.00 0.00 77 1009.4
20260507063543 54 35 0.0 2.6 0.00 0.00 0.00 77 1009.6
20260507063005 54 307 0.0 2.6 0.00 0.00 0.00 77 1009.5
20260507062555 54 303 0.0 3.5 0.00 0.00 0.00 77 1009.5
20260507062043 55 74 0.9 4.3 0.00 0.00 0.00 77 1009.5
20260507061503 55 327 1.7 5.2 0.00 0.00 0.00 76 1009.6
20260507061053 55 248 1.7 7.0 0.00 0.00 0.00 76 1009.5
20260507060541 55 311 2.6 7.0 0.00 0.00 0.00 76 1009.6
20260507060105 55 69 1.7 8.7 0.00 0.00 0.00 76 1009.6
20260507055549 56 340 3.5 8.7 0.00 0.00 0.00 76 1009.5
20260507055036 56 277 1.7 7.0 0.00 0.00 0.00 76 1009.4
20260507054506 56 350 2.6 7.0 0.00 0.00 0.00 76 1009.4
20260507054053 56 11 1.7 5.2 0.00 0.00 0.00 76 1009.4
20260507053542 56 42 2.6 7.0 0.00 0.00 0.00 75 1009.4
20260507053003 57 349 2.6 7.0 0.00 0.00 0.00 76 1009.3
20260507052555 57 34 1.7 3.5 0.00 0.00 0.00 75 1009.2
20260507052040 57 350 0.9 3.5 0.00 0.00 0.00 75 1009.1
20260507051510 57 77 0.9 3.5 0.00 0.00 0.00 75 1009.1
20260507051104 57 282 1.7 3.5 0.00 0.00 0.00 75 1009.2
20260507050552 57 290 0.0 2.6 0.00 0.00 0.00 75 1009.2
20260507050008 57 284 0.0 2.6 0.00 0.00 0.00 74 1009.1
20260507045601 57 14 0.9 2.6 0.00 0.00 0.00 74 1009.2
20260507045046 58 311 0.9 4.3 0.00 0.00 0.00 74 1009.2
20260507044507 58 315 1.7 5.2 0.00 0.00 0.00 74 1009.3
20260507044102 58 302 1.7 5.2 0.00 0.00 0.00 74 1009.2
20260507043546 58 297 0.0 8.7 0.00 0.00 0.00 73 1009.2
20260507043008 58 312 3.5 8.7 0.00 0.00 0.00 73 1009.1
20260507042558 59 315 2.6 8.7 0.00 0.00 0.00 73 1009.0
20260507042046 59 329 4.3 8.7 0.00 0.00 0.00 73 1009.1
20260507041513 59 29 3.5 10.4 0.00 0.00 0.00 74 1009.0
20260507041055 60 334 1.7 10.4 0.00 0.00 0.00 73 1009.0
20260507040541 60 355 2.6 6.1 0.00 0.00 0.00 75 1008.9
20260507040008 60 34 1.7 5.2 0.00 0.00 0.00 75 1008.8
20260507035558 61 321 1.7 4.3 0.00 0.00 0.00 75 1008.8
20260507035047 61 327 1.7 7.0 0.00 0.00 0.00 75 1008.6
20260507034511 61 329 2.6 7.0 0.00 0.00 0.00 75 1008.6
20260507034057 61 329 1.7 4.3 0.00 0.00 0.00 74 1008.5
20260507033547 61 19 1.7 4.3 0.00 0.00 0.00 74 1008.4
20260507033007 62 34 0.9 4.3 0.00 0.00 0.00 74 1008.3
20260507032557 62 26 2.6 5.2 0.00 0.00 0.00 74 1008.2
20260507032046 62 29 0.9 5.2 0.00 0.00 0.00 74 1008.2
20260507031505 62 14 2.6 6.1 0.00 0.00 0.00 74 1008.1
20260507031056 62 317 1.7 5.2 0.00 0.00 0.00 73 1008.0
20260507030539 63 52 1.7 5.2 0.00 0.00 0.00 73 1008.0
20260507030100 63 15 1.7 4.3 0.00 0.00 0.00 73 1007.9
20260507025549 63 360 0.9 4.3 0.00 0.00 0.00 73 1007.9
20260507025037 63 9 0.9 5.2 0.00 0.00 0.00 72 1007.9
20260507024505 63 30 0.9 5.2 0.00 0.00 0.00 73 1007.8
20260507024054 63 279 0.0 4.3 0.00 0.00 0.00 72 1007.8
20260507023549 64 355 1.7 4.3 0.00 0.00 0.00 71 1007.7
20260507023002 64 5 0.9 5.2 0.00 0.00 0.00 70 1007.7
20260507022554 64 15 2.6 5.2 0.00 0.00 0.00 71 1007.7
20260507022042 65 346 1.7 4.3 0.00 0.00 0.00 71 1007.7
20260507021502 65 344 1.7 3.5 0.00 0.00 0.00 70 1007.7
20260507021055 65 355 1.7 4.3 0.00 0.00 0.00 70 1007.6
20260507020541 65 22 1.7 4.3 0.00 0.00 0.00 70 1007.7
20260507020112 66 21 1.7 4.3 0.00 0.00 0.00 70 1007.7
20260507015551 66 40 1.7 5.2 0.00 0.00 0.00 69 1007.7
20260507015039 66 44 0.9 7.0 0.00 0.00 0.00 70 1007.7
20260507014609 66 20 0.9 7.0 0.00 0.00 0.00 68 1007.8
20260507014051 67 348 2.6 5.2 0.00 0.00 0.00 69 1007.8
20260507013538 67 33 1.7 7.8 0.00 0.00 0.00 68 1007.7
20260507013003 67 336 1.7 7.0 0.00 0.00 0.00 69 1007.7
20260507012553 67 14 2.6 6.1 0.00 0.00 0.00 69 1007.7
20260507012044 68 53 0.9 5.2 0.00 0.00 0.00 68 1007.7
20260507011503 68 351 2.6 5.2 0.00 0.00 0.00 69 1007.7
20260507011053 68 16 1.7 4.3 0.00 0.00 0.00 68 1007.7
20260507010541 68 61 1.7 7.0 0.00 0.00 0.00 70 1007.7
20260507005551 68 246 0.9 7.0 0.00 0.00 0.00 71 1007.6
20260507005039 68 5 2.6 7.0 0.00 0.00 0.00 70 1007.6
20260507004500 68 5 0.9 7.0 0.00 0.00 0.00 69 1007.6
20260507004051 69 314 2.6 7.0 0.00 0.00 0.00 68 1007.6
20260507003540 69 350 3.5 7.8 0.00 0.00 0.00 68 1007.5
20260507003101 69 71 4.3 7.8 0.00 0.00 0.00 67 1007.6
20260507002548 70 355 1.7 4.3 0.00 0.00 0.00 68 1007.5
20260507002036 70 319 1.7 7.0 0.00 0.00 0.00 67 1007.5
20260507001504 70 16 2.6 7.0 0.00 0.00 0.00 68 1007.5
20260507001056 70 324 0.9 7.0 0.00 0.00 0.00 67 1007.3
20260507000546 70 321 0.0 0.9 0.00 0.00 0.00 67 1007.5
20260507000002 70 36 0.0 0.0 0.00 0.00 0.00 65 1007.3
20260506235552 70 36 0.0 3.5 0.00 0.00 0.00 65 1007.4
20260506235042 70 36 1.7 3.5 0.00 0.00 0.00 68 1007.4
20260506234612 70 30 0.0 2.6 0.00 0.00 0.00 67 1007.4
20260506234053 70 348 0.9 2.6 0.00 0.00 0.00 65 1007.3
20260506233538 69 5 0.0 3.5 0.00 0.00 0.00 66 1007.3
20260506233043 69 33 0.9 3.5 0.00 0.00 0.00 68 1007.3
20260506232532 69 351 0.0 3.5 0.00 0.00 0.00 66 1007.4
20260506232019 69 33 0.0 2.6 0.00 0.00 0.00 68 1007.3
20260506231551 69 26 0.0 2.6 0.00 0.00 0.00 68 1007.3
20260506231030 69 22 0.0 3.5 0.00 0.00 0.00 68 1007.5
20260506230517 69 9 0.9 3.5 0.00 0.00 0.00 67 1007.5
20260506230049 68 101 0.0 1.7 0.00 0.00 0.00 67 1007.5
20260506225522 68 107 0.0 3.5 0.00 0.00 0.00 68 1007.6
20260506225001 68 328 0.9 3.5 0.00 0.00 0.00 69 1007.6
20260506224522 68 25 0.0 0.9 0.00 0.00 0.00 69 1007.7
20260506224004 68 40 0.0 0.9 0.00 0.00 0.00 69 1007.7
20260506223555 67 90 0.0 0.9 0.00 0.00 0.00 67 1007.8
20260506223017 68 203 0.0 5.2 0.00 0.00 0.00 67 1007.9
20260506222606 68 76 0.9 5.2 0.00 0.00 0.00 68 1007.8
20260506222051 68 17 0.0 3.5 0.00 0.00 0.00 69 1007.9
20260506221603 68 70 0.0 6.1 0.00 0.00 0.00 68 1007.9
20260506221048 68 64 2.6 6.1 0.00 0.00 0.00 68 1007.8
20260506220539 68 68 1.7 5.2 0.00 0.00 0.00 68 1007.9
20260506220058 68 50 1.7 4.3 0.00 0.00 0.00 68 1007.8
20260506215546 68 51 0.9 3.5 0.00 0.00 0.00 67 1007.8
20260506215032 68 323 0.9 5.2 0.00 0.00 0.00 68 1007.8
20260506214555 68 81 0.9 5.2 0.00 0.00 0.00 70 1007.7
20260506214042 68 64 0.9 3.5 0.00 0.00 0.00 69 1007.7
20260506213532 67 55 1.7 3.5 0.00 0.00 0.00 67 1007.8
20260506213103 68 86 0.0 3.5 0.00 0.00 0.00 65 1007.8
20260506212533 68 5 0.9 2.6 0.00 0.00 0.00 66 1007.9
20260506212018 68 134 1.7 5.2 0.00 0.00 0.00 67 1008.0
20260506211554 67 186 0.0 5.2 0.00 0.00 0.00 68 1008.1
20260506211030 67 148 1.7 5.2 0.00 0.00 0.00 67 1008.2
20260506210517 67 111 0.0 4.3 0.00 0.00 0.00 68 1008.1
20260506210037 67 334 1.7 4.3 0.00 0.00 0.00 68 1008.2
20260506205523 67 209 0.0 1.7 0.00 0.00 0.00 69 1008.3
20260506205008 67 35 0.0 5.2 0.00 0.00 0.00 68 1008.3
20260506204527 67 94 0.9 5.2 0.00 0.00 0.00 68 1008.3
20260506204015 66 50 1.7 7.0 0.00 0.00 0.00 68 1008.2
20260506203503 67 272 2.6 7.0 0.00 0.00 0.00 67 1008.2
20260506203023 67 158 1.7 7.0 0.00 0.00 0.00 67 1008.1
20260506202539 67 349 0.0 5.2 0.00 0.00 0.00 69 1008.0
20260506202106 66 243 0.9 5.2 0.00 0.00 0.00 68 1008.1
20260506201532 66 355 0.9 5.2 0.00 0.00 0.00 69 1008.1
20260506201007 68 180 0.0 6.1 0.00 0.00 0.00 66 1008.3
20260506200558 68 190 1.7 6.1 0.00 0.00 0.00 71 1008.3
20260506200014 66 40 1.7 5.2 0.00 0.00 0.00 72 1008.3
20260506195604 65 155 0.0 5.2 0.00 0.00 0.00 70 1008.5
20260506195051 65 154 2.6 5.2 0.00 0.00 0.00 71 1008.5
20260506194525 65 192 1.7 3.5 0.00 0.00 0.00 72 1008.6
20260506194006 65 267 1.7 3.5 0.00 0.00 0.00 70 1008.8
20260506193555 65 84 1.7 3.5 0.00 0.00 0.00 69 1008.8
20260506193005 65 16 0.0 4.3 0.00 0.00 0.00 72 1008.7
20260506192556 65 86 1.7 4.3 0.00 0.00 0.00 72 1008.7
20260506192032 64 342 0.0 3.5 0.00 0.00 0.00 73 1008.8
20260506191554 64 305 0.9 3.5 0.00 0.00 0.00 75 1008.8
20260506191039 64 5 0.9 2.6 0.00 0.00 0.00 73 1008.7
20260506190525 63 85 0.0 4.3 0.00 0.00 0.00 75 1008.7
20260506190032 63 261 0.9 4.3 0.00 0.00 0.00 76 1008.7
20260506185520 63 87 0.0 6.1 0.00 0.00 0.00 74 1008.8
20260506185009 63 195 1.7 6.1 0.00 0.00 0.00 74 1008.7
20260506184528 63 278 2.6 6.1 0.00 0.00 0.00 75 1008.8
20260506184019 62 72 1.7 4.3 0.00 0.00 0.00 75 1008.6
20260506183505 62 301 1.7 4.3 0.00 0.00 0.00 75 1008.5
20260506183045 62 193 0.9 4.3 0.00 0.00 0.00 75 1008.5
20260506182523 62 123 0.9 4.3 0.00 0.00 0.00 76 1008.6
20260506182011 62 184 0.9 3.5 0.00 0.00 0.00 75 1008.7
20260506181537 62 121 0.9 4.3 0.00 0.00 0.00 77 1008.7
20260506181019 62 148 0.9 5.2 0.00 0.00 0.00 76 1008.8
20260506180507 62 114 0.9 5.2 0.00 0.00 0.00 73 1008.8
20260506180028 63 290 1.7 4.3 0.00 0.00 0.00 74 1008.9
20260506175514 62 161 0.9 3.5 0.00 0.00 0.00 76 1008.8
20260506175057 62 158 0.0 5.2 0.00 0.00 0.00 76 1008.8
20260506174513 61 162 0.9 5.2 0.00 0.00 0.00 75 1008.8
20260506174002 62 278 1.7 4.3 0.00 0.00 0.00 76 1008.8
20260506173551 61 256 0.9 3.5 0.00 0.00 0.00 76 1008.8
20260506173010 61 306 0.0 2.6 0.00 0.00 0.00 76 1008.6
20260506172556 61 65 0.9 2.6 0.00 0.00 0.00 77 1008.6
20260506172015 61 319 0.9 4.3 0.00 0.00 0.00 78 1008.5
20260506171542 60 347 0.9 4.3 0.00 0.00 0.00 78 1008.6
20260506171009 60 170 0.9 3.5 0.00 0.00 0.00 78 1008.5
20260506170555 59 134 1.7 3.5 0.00 0.00 0.00 78 1008.5
20260506170014 59 169 0.0 2.6 0.00 0.00 0.00 80 1008.7
20260506165603 59 172 0.0 2.6 0.00 0.00 0.00 79 1008.7
20260506165051 59 173 0.9 4.3 0.00 0.00 0.00 79 1008.7
20260506164510 59 184 0.9 4.3 0.00 0.00 0.00 79 1008.7
20260506164102 59 49 0.0 1.7 0.00 0.00 0.00 79 1008.8
20260506163545 59 49 0.0 1.7 0.00 0.00 0.00 79 1008.7
20260506163003 59 49 0.0 1.7 0.00 0.00 0.00 79 1008.6
20260506162555 59 49 0.9 1.7 0.00 0.00 0.00 80 1008.7
20260506162041 59 49 0.0 2.6 0.00 0.00 0.00 80 1008.7
20260506161511 59 49 0.9 2.6 0.00 0.00 0.00 80 1008.7
20260506161102 59 48 0.9 2.6 0.00 0.00 0.00 80 1008.6
20260506160541 59 25 0.0 2.6 0.00 0.00 0.00 80 1008.5
20260506160115 58 71 0.9 3.5 0.00 0.00 0.00 81 1008.2
20260506155548 58 51 0.9 2.6 0.00 0.00 0.00 81 1008.4
20260506155034 58 294 0.0 1.7 0.00 0.00 0.00 81 1008.3
20260506154604 57 286 0.0 2.6 0.00 0.00 0.00 81 1008.0
20260506154046 57 286 0.0 3.5 0.00 0.00 0.00 82 1008.1
20260506153533 57 258 1.7 3.5 0.00 0.00 0.00 83 1008.0
20260506153056 56 214 0.0 2.6 0.00 0.00 0.00 84 1007.8
20260506152541 55 228 0.0 2.6 0.00 0.00 0.00 84 1007.9
20260506152026 55 316 0.0 3.5 0.00 0.00 0.00 85 1008.3
20260506151547 55 5 0.0 3.5 0.00 0.00 0.00 85 1008.5
20260506151014 55 263 0.0 4.3 0.00 0.00 0.00 85 1008.6
20260506150554 55 283 0.9 4.3 0.00 0.00 0.00 85 1008.7
20260506150012 55 73 0.0 5.2 0.00 0.00 0.00 86 1008.7
20260506145604 55 33 1.7 5.2 0.00 0.00 0.00 86 1008.8
20260506145054 55 246 0.0 3.5 0.00 0.00 0.00 86 1008.6
20260506144518 55 244 0.0 3.5 0.00 0.00 0.00 86 1008.6
20260506144107 55 5 0.0 2.6 0.00 0.00 0.00 86 1008.6
20260506143547 55 286 0.0 2.6 0.00 0.00 0.00 86 1008.5
20260506143007 55 293 0.9 1.7 0.00 0.00 0.00 87 1008.4
20260506142557 55 320 0.0 3.5 0.00 0.00 0.00 87 1008.4
20260506142041 55 320 0.9 3.5 0.00 0.00 0.00 87 1008.2
20260506141508 55 294 0.0 0.0 0.00 0.00 0.00 87 1008.0
20260506141054 55 294 0.0 0.0 0.00 0.00 0.00 87 1008.0
20260506140542 55 294 0.0 0.0 0.00 0.00 0.00 87 1007.6
20260506140002 55 292 0.0 0.0 0.00 0.00 0.00 87 1007.6
20260506135551 55 292 0.0 0.0 0.00 0.00 0.00 86 1007.6
20260506135038 55 292 0.0 0.0 0.00 0.00 0.00 86 1007.5
20260506134511 55 292 0.0 0.0 0.00 0.00 0.00 86 1007.5
20260506134059 55 292 0.0 0.0 0.00 0.00 0.00 86 1007.5
20260506133548 55 292 0.0 0.0 0.00 0.00 0.00 86 1007.5
20260506133012 55 292 0.0 0.0 0.00 0.00 0.00 85 1007.5
20260506132557 55 292 0.0 0.0 0.00 0.00 0.00 85 1007.4
20260506132039 55 292 0.0 0.0 0.00 0.00 0.00 85 1007.4
20260506131506 55 292 0.0 0.0 0.00 0.00 0.00 85 1007.4
20260506131059 55 292 0.0 0.0 0.00 0.00 0.00 85 1007.3
20260506130544 56 292 0.0 0.0 0.00 0.00 0.00 85 1007.2
20260506130009 56 292 0.0 0.0 0.00 0.00 0.00 85 1007.1
20260506125554 56 292 0.0 0.0 0.00 0.00 0.00 85 1007.0
20260506125040 56 292 0.0 0.0 0.00 0.00 0.00 85 1007.1
20260506124501 56 292 0.0 0.0 0.00 0.00 0.00 85 1007.1
20260506124051 56 292 0.0 0.0 0.00 0.00 0.00 85 1007.0
20260506123539 56 292 0.0 0.0 0.00 0.00 0.00 85 1006.9
20260506123100 56 292 0.0 0.0 0.00 0.00 0.00 85 1006.9
20260506122547 56 292 0.0 0.9 0.00 0.00 0.00 85 1006.9
20260506122036 56 292 0.0 0.9 0.00 0.00 0.00 85 1006.9
20260506121600 56 292 0.0 0.0 0.00 0.00 0.00 85 1007.0
20260506121049 56 292 0.0 0.0 0.00 0.00 0.00 85 1007.1
20260506120537 56 292 0.0 0.9 0.00 0.00 0.00 85 1007.1
20260506120058 56 292 0.0 0.0 0.00 0.00 0.00 85 1007.1
20260506115546 56 292 0.0 0.9 0.00 0.00 0.00 85 1007.1
20260506115035 56 292 0.0 2.6 0.00 0.00 0.00 85 1007.0
20260506114558 56 292 0.0 2.6 0.00 0.00 0.00 85 1006.9
20260506114046 56 292 0.0 2.6 0.00 0.00 0.00 85 1006.9
20260506113535 56 292 0.0 2.6 0.00 0.00 0.00 85 1006.8
20260506113058 56 14 0.0 3.5 0.00 0.00 0.00 85 1006.9
20260506112547 56 14 0.9 3.5 0.00 0.00 0.00 85 1006.8
20260506112034 57 348 0.0 0.0 0.00 0.00 0.00 85 1006.7
20260506111557 57 348 0.0 0.0 0.00 0.00 0.00 85 1006.7
20260506111046 57 348 0.0 0.0 0.00 0.00 0.00 85 1006.7
20260506110538 57 348 0.0 0.0 0.00 0.00 0.00 85 1006.5
20260506110008 57 348 0.0 0.0 0.00 0.00 0.00 85 1006.5
20260506105554 57 348 0.0 0.0 0.00 0.00 0.00 85 1006.4
20260506105041 57 348 0.0 0.0 0.00 0.00 0.00 85 1006.2
20260506104502 57 348 0.0 0.0 0.00 0.00 0.00 85 1006.2
20260506104052 57 348 0.0 0.0 0.00 0.00 0.00 85 1006.1
20260506103541 57 348 0.0 0.0 0.00 0.00 0.00 85 1006.0
20260506103003 57 348 0.0 0.0 0.00 0.00 0.00 85 1005.9
20260506102552 57 348 0.0 0.0 0.00 0.00 0.00 85 1005.9
20260506102040 57 348 0.0 0.0 0.00 0.00 0.00 85 1005.8
20260506101603 57 348 0.0 0.0 0.00 0.00 0.00 85 1005.9
20260506101051 57 348 0.0 0.0 0.00 0.00 0.00 85 1005.7
20260506100540 57 348 0.0 0.0 0.00 0.00 0.00 86 1005.7
20260506100100 57 348 0.0 0.0 0.00 0.00 0.00 86 1005.7
20260506095549 57 348 0.0 0.0 0.00 0.00 0.00 86 1005.8
20260506095037 57 348 0.0 0.0 0.00 0.00 0.00 85 1005.7
20260506094607 57 348 0.0 0.0 0.00 0.00 0.00 85 1005.7
20260506094046 57 348 0.0 0.0 0.00 0.00 0.00 85 1005.7
20260506093534 57 348 0.0 0.0 0.00 0.00 0.00 85 1005.6
20260506093058 57 348 0.0 0.0 0.00 0.00 0.00 85 1005.5
20260506092546 57 348 0.0 0.0 0.00 0.00 0.00 85 1005.6
20260506092035 57 348 0.0 0.0 0.00 0.00 0.00 85 1005.6
20260506091606 57 348 0.0 0.0 0.00 0.00 0.00 85 1005.5
20260506091045 57 348 0.0 0.0 0.00 0.00 0.00 85 1005.5
20260506090533 57 348 0.0 0.0 0.00 0.00 0.00 85 1005.5
20260506090058 57 348 0.0 0.0 0.00 0.00 0.00 85 1005.5